Temperature
22 23 23 23 28 30 30 32 31 32 31 28 28 28 28 27 27 24 18 18 18 18 19 20 20 19 20 20 19 19 19 19 19 19 19 18 18 18 18 18 18 18 18 18 18 18 18 18 18
22 22 23 26 30 30 31 32 31 30 28 26 26 25 26 26 23 21 18 18 18 18 19 20 20 19 19 20 19 19 18 18 18 18 18 18 18 18 18 18 18 17 17 17 18 18 18 18 18
22 22 25 30 29 32 30 31 30 28 25 26 27 26 25 24 21 20 18 18 18 19 20 20 20 20 20 20 19 19 19 18 18 18 18 18 18 18 18 18 18 18 17 17 17 17 17 18 18
22 24 26 30 31 31 31 30 29 28 26 25 26 26 24 20 20 19 18 18 18 19 19 20 20 19 20 20 19 18 18 18 18 18 18 18 18 18 17 18 18 18 17 17 18 17 17 17 17
23 27 30 29 31 30 30 29 29 30 28 27 26 27 25 19 19 18 18 18 19 19 19 20 20 20 20 20 19 19 18 18 18 18 18 18 18 17 17 17 17 18 17 17 17 17 17 17 17
26 28 30 31 29 30 30 29 29 30 29 27 27 28 24 20 19 19 19 19 19 19 19 20 21 20 20 19 19 20 18 18 18 18 18 18 18 18 17 17 17 17 17 17 17 18 17 16 17
27 29 31 31 30 30 31 29 29 29 29 28 27 28 25 21 20 20 20 19 19 19 19 19 19 20 20 20 19 18 18 18 17 17 17 17 17 17 17 17 17 17 17 17 17 17 17 16 17
27 29 30 31 30 31 29 29 28 28 29 27 26 28 27 22 20 20 20 20 19 19 19 19 19 19 19 19 19 18 18 17 17 17 17 17 17 17 17 17 17 17 17 17 17 16 16 16 16
26 30 30 31 31 30 29 29 28 27 28 27 26 26 25 21 21 21 20 20 20 19 19 20 19 19 19 18 19 18 18 17 17 17 17 17 16 17 16 17 16 17 17 16 16 16 16 16 16
28 31 30 30 30 31 30 30 28 28 28 28 26 24 22 21 22 22 22 21 21 20 20 21 20 19 18 17 18 18 17 16 16 16 16 16 16 16 16 17 17 17 16 16 16 16 15 15 16
28 32 30 29 29 30 30 29 29 30 30 29 28 25 23 22 22 23 23 21 22 21 21 21 22 21 19 18 18 17 17 16 16 16 16 16 16 16 16 16 16 16 16 16 16 15 15 15 15
28 29 29 29 28 29 30 29 29 29 30 28 28 26 24 23 23 23 22 22 22 21 21 22 22 22 21 19 19 18 17 16 16 16 16 16 16 15 15 16 16 16 16 15 15 15 15 15 15
29 29 28 28 28 29 29 29 29 29 29 27 27 25 24 24 23 23 22 22 22 21 21 22 21 22 21 20 19 18 18 17 16 16 16 15 15 15 15 15 16 16 15 15 15 15 15 15 15
28 28 28 29 29 29 29 29 28 29 29 27 27 26 25 24 23 22 22 22 22 21 20 21 21 20 20 20 20 18 18 17 16 15 16 16 15 15 15 15 15 15 15 14 15 15 15 15 15
27 29 29 29 29 28 29 29 29 29 28 28 27 26 25 24 23 23 23 23 21 20 20 20 20 20 19 19 19 18 18 16 16 16 16 16 15 15 14 15 14 14 15 15 15 15 15 15 15
27 28 28 29 29 28 28 28 30 29 28 28 28 27 25 24 23 23 23 23 21 20 19 20 20 19 18 18 18 17 17 16 16 15 15 16 15 15 15 14 14 15 15 14 14 14 14 14 14
28 27 28 29 28 28 28 28 28 27 27 28 28 27 26 25 24 24 23 22 21 20 19 19 20 18 18 18 18 17 16 16 16 15 15 16 16 15 15 14 14 15 14 14 14 13 13 13 13
28 28 27 28 28 28 28 28 26 26 26 27 26 26 26 25 25 23 23 23 21 19 19 19 18 16 16 17 17 17 16 16 16 15 15 16 16 16 15 14 14 14 14 14 13 13 12 12 12
27 27 27 28 28 28 27 25 24 23 24 24 23 23 23 23 22 21 21 21 19 18 17 17 17 17 15 15 16 16 15 15 15 15 16 15 15 15 15 14 14 13 13 13 13 12 12 12 12
26 26 27 28 27 28 26 24 23 22 21 20 20 20 20 21 21 19 18 18 18 17 16 15 15 16 15 15 16 16 15 14 14 14 14 14 14 14 14 14 13 12 12 11 11 10 11 11 12
26 26 27 27 26 27 26 25 24 22 20 20 19 19 18 18 18 17 17 16 16 15 14 14 14 14 14 14 14 15 14 14 13 13 12 13 13 12 13 12 11 11 11 11 11 10 10 11 11
27 27 27 27 26 28 26 26 24 23 22 20 19 18 18 18 17 17 16 15 14 13 13 13 13 12 13 13 13 13 14 14 13 12 11 11 11 11 11 10 10 10 10 10 10 10 9 9 10
27 27 27 27 26 27 26 26 26 24 23 20 18 17 17 16 16 16 15 14 14 13 13 12 12 12 12 13 13 13 12 12 11 11 10 11 10 10 10 9 9 9 9 9 9 8 8 9 9
26 26 26 26 26 24 26 26 25 25 22 20 18 16 16 16 15 15 15 14 14 13 12 12 13 13 13 13 13 12 11 10 10 9 10 10 10 10 9 8 8 8 8 8 7 7 6 6 7
25 25 24 24 24 24 25 25 23 20 19 20 18 16 16 15 15 15 14 14 13 12 12 11 11 11 11 11 11 10 10 9 9 8 8 8 8 9 8 7 7 7 7 6 5 5 4 4 5
25 25 24 24 24 25 23 25 22 18 17 17 16 15 15 15 14 14 13 13 12 11 10 10 10 10 10 10 10 9 9 8 8 7 8 7 7 7 6 6 5 4 4 4 4 4 4 4 4
24 27 26 25 24 23 24 22 19 18 17 16 16 15 15 14 13 13 12 12 11 10 9 9 9 9 9 9 9 9 9 8 7 6 6 6 5 5 5 4 3 3 3 3 3 3 3 3 3
24 26 24 23 22 22 23 23 26 19 18 17 16 16 15 14 13 12 12 11 10 9 9 9 9 9 9 8 7 6 6 5 5 5 5 4 4 4 3 3 2 2 2 2 2 2 2 2 3
24 24 24 24 25 23 22 24 20 21 19 18 17 15 15 14 13 12 11 11 10 9 9 8 7 7 7 6 6 5 5 5 4 4 4 3 3 2 2 2 2 2 2 2 2 2 2 2 2
23 24 24 23 22 23 22 21 17 19 18 17 16 14 13 13 12 12 11 10 9 9 8 7 6 6 6 5 5 4 4 3 3 3 3 2 2 2 2 2 1 1 1 1 1 1 1 1 2
Wind_Speed
9 7 5 4 5 6 7 5 2 5 3 3 1 3 6 6 5 3 5 6 8 12 13 13 11 9 11 11 10 9 9 10 12 13 13 14 13 11 10 8 6 5 5 4 5 5 5 5 4
6 5 5 4 5 6 7 7 7 4 5 3 3 1 3 3 5 5 6 9 12 12 12 13 11 12 14 12 9 9 9 10 11 12 11 11 10 10 9 8 5 4 3 2 2 3 3 4 5
5 6 4 4 4 3 7 8 3 5 4 4 4 1 3 4 4 4 8 12 13 12 12 14 12 14 16 14 8 9 10 10 9 10 11 11 9 8 6 7 5 3 2 2 4 4 5 6 6
6 6 4 5 3 2 3 4 4 7 6 4 1 1 3 5 3 6 14 14 14 14 15 14 14 14 15 15 10 9 10 10 8 8 9 10 9 8 5 6 7 6 3 3 6 7 6 8 9
6 5 5 4 4 5 2 2 4 5 5 4 1 2 5 6 8 14 17 15 15 15 15 15 16 12 13 14 12 10 9 9 9 8 9 10 8 4 3 4 6 7 4 4 10 13 16 16 13
5 4 5 5 7 5 2 4 4 4 3 3 2 2 8 9 12 17 16 15 15 14 13 14 16 13 13 12 11 12 10 9 10 9 9 9 8 6 4 6 6 6 7 11 17 21 19 16 14
5 5 2 2 6 7 5 7 7 5 4 3 1 2 7 11 13 16 13 13 13 11 10 10 12 13 14 14 11 10 10 11 11 9 9 9 8 7 6 7 8 11 12 11 13 13 13 12 11
4 4 4 5 6 8 8 9 6 5 3 3 2 1 7 14 15 15 14 12 12 10 9 8 9 8 10 13 11 12 12 12 11 10 9 8 6 6 6 5 9 11 12 11 10 10 8 8 9
4 5 5 5 3 8 10 10 7 3 4 5 3 2 6 16 17 16 15 13 11 10 8 8 8 7 9 11 10 11 11 10 11 9 8 6 4 5 5 8 11 12 13 12 11 7 6 6 6
5 2 4 2 2 3 11 9 9 9 9 9 7 3 9 15 17 14 13 11 10 11 10 8 8 8 8 8 7 7 7 8 8 8 7 6 6 6 7 10 11 11 10 10 9 7 8 5 0
4 2 2 2 3 2 10 9 9 9 9 9 8 8 13 14 14 11 8 8 10 11 9 9 7 6 7 6 6 6 5 6 7 7 5 6 5 6 6 7 7 7 6 6 6 5 2 3 4
4 1 4 3 3 3 8 10 10 11 1 2 4 8 12 13 11 10 10 10 12 11 9 9 8 6 6 6 5 5 4 3 3 6 3 4 4 4 4 4 5 4 4 3 2 3 3 4 6
6 2 1 1 2 3 5 8 8 9 5 1 3 9 12 12 11 9 9 9 11 11 9 9 8 7 6 6 5 5 5 4 5 6 6 4 5 4 4 3 2 3 3 3 2 3 4 6 6
1 2 2 2 4 4 7 6 5 11 5 6 5 9 12 12 11 11 11 11 11 11 11 9 8 8 8 7 6 6 7 7 6 6 6 5 4 4 3 3 2 1 3 4 4 5 6 7 8
3 7 9 8 5 3 6 9 10 10 6 9 9 10 12 12 12 12 12 12 12 10 10 9 8 7 8 9 8 8 8 8 6 6 6 6 4 3 1 2 1 1 3 4 5 7 8 9 10
8 11 15 11 8 5 7 12 8 7 8 10 10 10 11 13 13 12 11 10 10 10 10 9 7 7 7 8 8 7 8 8 7 6 6 5 3 2 1 1 2 2 5 6 8 9 10 11 12
13 14 13 8 6 5 8 7 6 6 6 9 8 9 10 11 11 11 11 10 9 8 8 9 9 9 6 6 7 6 6 6 6 6 5 5 4 3 3 4 4 6 7 8 8 9 10 12 14
10 10 8 8 7 7 7 1 9 5 1 5 3 3 5 7 7 7 9 9 7 6 8 12 11 11 2 2 5 5 5 5 5 5 5 6 5 5 5 6 5 6 7 7 7 8 10 11 13
4 6 7 7 5 5 5 8 10 10 7 5 5 4 5 5 4 4 6 7 6 6 9 13 15 14 2 9 6 4 4 4 4 4 5 4 2 2 4 6 5 5 6 6 7 8 10 11 11
9 10 10 5 3 5 10 10 11 12 12 9 7 8 8 8 6 6 4 2 4 3 6 12 11 12 8 8 0 2 2 3 3 4 3 3 4 5 5 5 6 6 7 7 7 8 10 12 13
12 13 12 9 7 6 10 10 11 11 12 13 13 12 12 11 11 9 7 5 4 6 8 11 12 12 6 2 1 4 4 4 3 2 2 5 5 5 6 7 8 8 9 10 10 11 14 15 16
12 11 9 10 10 6 8 5 12 12 12 14 14 13 13 12 12 12 12 11 10 11 11 11 12 12 8 4 3 5 4 4 5 5 5 5 5 7 8 9 10 10 11 12 12 13 15 17 18
5 8 9 10 11 7 8 9 9 12 10 11 12 13 14 14 15 15 15 15 15 14 14 14 14 14 12 11 9 8 8 6 5 7 8 8 8 10 11 12 12 12 13 14 15 16 17 16 18
7 9 8 9 11 12 10 7 6 6 5 9 11 12 13 15 16 16 16 15 15 15 14 14 15 15 14 14 14 13 11 9 9 10 11 11 12 12 13 15 15 15 15 16 16 17 19 18 19
11 12 10 11 12 9 5 7 2 6 7 10 12 12 12 13 13 14 14 14 14 14 13 12 13 13 12 12 12 11 10 8 10 11 12 13 13 14 14 15 16 16 17 18 18 18 19 20 20
16 17 15 10 12 8 7 6 6 9 9 10 11 12 11 11 12 12 12 12 12 12 11 11 11 10 10 9 8 8 8 9 10 12 13 13 13 14 16 16 17 19 20 18 18 18 18 18 17
10 10 11 12 10 9 7 5 6 11 12 11 12 11 10 10 10 10 11 11 11 11 11 10 9 8 8 9 9 10 11 11 12 13 13 13 14 14 16 17 19 19 18 17 15 12 14 14 15
7 7 6 11 14 11 11 11 8 18 15 13 12 12 10 9 9 9 10 10 10 9 8 8 8 8 9 10 10 10 12 13 14 15 15 15 15 15 16 16 16 15 14 13 12 12 13 14 13
9 11 10 8 8 10 12 4 3 10 15 14 13 12 10 9 8 7 8 8 8 7 7 8 8 9 10 11 12 13 15 16 16 15 15 14 13 13 13 13 13 13 14 13 12 11 12 12 12
7 10 13 12 11 11 12 3 3 8 13 13 12 11 9 7 6 6 6 7 7 7 7 8 9 11 12 13 15 16 16 16 15 14 14 13 13 13 12 13 13 13 12 12 12 11 12 13 14
Wind_Direction
187 196 220 231 232 229 218 168 177 152 132 49 315 60 10 357 357 32 89 114 130 131 135 124 113 118 118 112 109 110 111 112 114 114 112 113 113 111 105 105 108 102 88 73 67 78 72 67 58
182 197 217 234 248 219 182 165 175 112 62 100 128 354 319 68 47 89 118 127 128 126 130 122 119 113 106 101 110 115 112 110 114 112 108 101 98 100 107 108 106 106 103 88 83 68 26 21 5
201 221 241 241 241 245 154 168 163 106 112 156 149 254 359 36 57 81 123 135 126 119 114 108 115 110 110 113 115 114 114 113 119 122 120 111 98 83 87 95 85 85 85 48 21 11 356 347 344
200 205 223 240 184 103 56 114 145 147 149 167 175 101 78 39 60 114 135 131 123 119 110 102 101 101 110 111 119 130 119 114 117 116 115 112 99 86 78 91 89 91 72 20 35 23 9 360 356
221 237 223 201 156 133 116 104 160 149 141 149 241 65 97 88 100 130 137 127 121 113 103 87 79 90 96 108 135 125 107 104 108 116 113 106 107 106 120 79 77 91 87 48 45 40 36 42 38
216 240 228 175 157 150 184 192 189 184 139 126 214 85 90 123 127 140 140 126 118 114 109 102 87 87 103 112 103 105 108 108 116 119 119 123 133 140 114 65 53 53 62 67 62 63 57 46 32
263 253 253 163 166 183 175 185 200 191 185 156 112 91 117 140 136 143 142 134 128 123 116 114 108 98 86 82 86 97 104 107 111 111 120 123 128 122 89 62 60 71 76 83 83 74 63 63 58
290 263 188 169 167 146 155 174 195 215 183 127 204 122 134 143 149 145 142 139 129 126 121 116 114 119 116 101 96 94 92 95 98 104 113 114 123 110 96 84 93 93 89 92 104 117 123 96 87
260 234 157 130 150 132 163 171 172 185 193 185 186 346 86 147 160 154 149 147 140 134 134 133 124 116 101 104 113 107 104 113 116 113 110 129 116 107 100 80 87 94 94 98 108 126 150 162 140
244 237 78 45 5 156 174 182 164 178 182 192 194 169 139 159 170 171 164 153 148 144 139 122 121 120 114 109 109 105 118 111 103 100 105 109 105 100 107 93 95 101 112 121 130 154 183 214 33
244 353 37 75 25 219 179 189 180 203 192 203 200 173 167 168 177 185 161 154 146 136 126 114 109 107 111 109 121 117 113 113 111 102 100 103 110 118 122 119 128 131 157 152 158 157 97 28 4
247 42 351 10 348 233 191 189 201 225 169 23 227 172 176 176 177 178 163 158 148 144 134 127 130 126 116 124 122 118 112 103 99 91 106 125 123 114 116 116 113 118 98 85 52 60 12 351 349
235 139 24 320 242 248 207 211 228 236 219 257 209 180 181 177 175 170 161 156 157 153 150 145 143 144 141 131 114 110 108 96 85 100 81 85 106 113 123 104 83 70 64 62 15 356 331 318 316
181 249 221 226 223 212 228 214 241 250 209 221 207 189 180 178 175 167 173 172 175 168 165 154 152 149 141 119 112 111 100 104 102 92 88 87 102 113 127 154 150 56 10 358 331 326 311 306 302
238 250 229 217 215 211 243 232 228 249 207 220 215 191 179 181 181 182 184 176 179 178 165 159 156 144 129 120 118 109 108 110 102 97 100 96 102 110 142 144 213 337 324 303 300 296 295 295 298
240 247 247 222 208 185 228 255 242 244 225 227 213 195 192 189 189 193 193 185 183 190 177 164 143 129 120 114 110 106 110 113 110 113 116 109 109 110 200 204 243 286 285 289 291 292 295 293 292
230 242 237 212 191 200 222 267 40 356 249 238 215 207 210 204 200 205 210 203 201 202 187 154 133 115 111 111 106 108 118 121 126 139 148 149 164 180 225 241 249 256 273 276 281 285 294 295 292
228 225 223 223 170 220 221 53 36 15 322 222 215 232 233 234 216 219 238 233 216 203 170 144 126 94 36 146 130 130 131 132 142 152 152 166 182 199 234 256 257 266 278 285 301 304 297 292 291
244 232 224 210 175 220 143 84 63 56 62 63 31 7 344 330 348 335 285 254 223 202 160 140 132 120 178 249 181 173 145 134 147 147 153 163 183 248 274 285 279 285 297 307 303 299 299 299 300
214 222 225 198 193 217 123 109 86 71 68 57 41 35 15 11 20 12 335 265 228 173 143 141 153 139 186 256 11 87 107 118 122 128 107 40 358 329 323 335 324 333 318 302 297 303 298 295 297
220 231 231 211 167 190 162 148 118 91 72 62 52 45 37 33 37 45 49 62 77 100 121 125 131 134 143 80 213 130 149 151 164 117 8 6 340 337 351 345 335 328 313 308 311 299 296 296 297
229 215 224 200 202 201 212 212 142 117 83 64 56 52 49 51 56 59 66 74 83 93 99 104 111 116 111 118 105 69 45 30 20 348 354 332 341 342 341 338 333 325 314 305 297 295 296 290 289
205 162 200 205 224 243 223 244 145 154 107 75 70 67 67 67 68 69 71 77 83 87 89 87 85 79 73 65 55 52 43 29 6 359 339 329 337 330 328 327 324 314 305 301 295 292 288 286 285
163 167 185 217 233 241 230 234 165 126 107 110 98 90 85 81 80 80 79 76 75 77 79 76 72 66 61 58 54 49 40 20 3 353 336 339 330 323 322 323 317 308 303 300 298 295 289 286 285
197 200 209 216 226 234 178 225 110 103 120 126 121 111 104 98 88 79 74 72 70 69 70 73 73 70 63 58 52 42 24 6 351 346 342 330 322 321 324 321 312 307 305 301 296 292 288 283 280
209 220 232 237 246 226 162 232 120 121 124 124 121 118 114 102 87 78 72 71 72 69 67 68 68 64 55 47 36 25 5 353 344 345 331 320 320 317 314 308 306 303 299 294 291 287 286 288 289
213 227 250 269 260 263 229 147 140 152 152 150 141 133 121 102 87 78 73 68 66 66 63 59 55 46 31 18 6 357 353 344 336 328 318 314 312 309 309 308 304 302 299 297 296 296 296 297 292
255 227 216 235 247 243 243 222 186 176 174 166 158 143 127 108 90 74 65 58 54 51 50 41 29 15 3 354 348 342 337 332 328 321 314 313 312 313 312 311 315 316 317 317 309 298 291 285 283
195 216 236 261 256 259 250 225 58 172 172 171 159 141 127 111 85 64 53 48 40 27 19 12 3 354 349 344 340 335 331 327 322 315 314 316 320 322 327 327 320 316 311 306 299 295 300 304 300
265 241 218 228 236 241 266 290 88 143 157 164 154 138 120 91 64 53 39 23 9 6 3 357 353 347 342 336 330 327 324 321 319 320 325 330 328 328 320 311 327 328 315 312 311 309 307 304 299
Height
1530 1530 1531 1533 1527 1517 1510 1503 1502 1502 1505 1512 1513 1514 1518 1521 1520 1529 1532 1528 1531 1535 1537 1538 1540 1540 1540 1542 1544 1545 1546 1547 1548 1550 1551 1552 1552 1553 1553 1553 1554 1555 1556 1557 1557 1557 1557 1557 1557
1530 1530 1533 1530 1517 1514 1508 1503 1504 1505 1513 1517 1518 1521 1521 1522 1526 1529 1529 1528 1531 1534 1538 1540 1540 1540 1541 1543 1545 1548 1547 1547 1548 1549 1550 1552 1553 1554 1554 1554 1554 1555 1556 1557 1557 1556 1557 1556 1556
1530 1531 1530 1521 1516 1505 1507 1505 1506 1512 1518 1518 1519 1522 1523 1525 1528 1528 1528 1529 1532 1535 1538 1539 1540 1540 1542 1543 1546 1548 1549 1548 1549 1551 1551 1551 1552 1553 1554 1554 1554 1555 1555 1556 1556 1555 1556 1556 1556
1532 1532 1528 1517 1510 1508 1504 1506 1510 1514 1519 1521 1522 1522 1525 1528 1528 1527 1528 1531 1534 1536 1539 1539 1541 1541 1543 1544 1548 1549 1548 1548 1549 1552 1552 1551 1552 1553 1554 1554 1554 1555 1556 1556 1555 1555 1556 1556 1556
1532 1527 1516 1514 1509 1509 1511 1512 1512 1513 1517 1521 1523 1521 1526 1529 1527 1528 1531 1534 1536 1538 1540 1539 1540 1542 1544 1544 1545 1546 1547 1548 1549 1551 1551 1551 1552 1554 1555 1556 1554 1554 1556 1556 1553 1553 1553 1554 1555
1529 1523 1511 1508 1511 1510 1513 1514 1515 1514 1517 1521 1522 1520 1527 1531 1530 1531 1534 1536 1537 1538 1540 1539 1541 1542 1543 1544 1545 1546 1548 1548 1548 1550 1551 1552 1553 1555 1556 1555 1554 1555 1555 1553 1551 1551 1553 1555 1555
1524 1515 1506 1507 1510 1510 1512 1515 1517 1517 1519 1521 1523 1521 1528 1531 1532 1534 1536 1538 1538 1539 1540 1542 1543 1543 1544 1544 1546 1547 1548 1548 1549 1551 1552 1552 1553 1554 1555 1554 1555 1554 1554 1552 1551 1552 1552 1554 1553
1524 1516 1510 1506 1508 1507 1513 1516 1518 1519 1519 1523 1525 1522 1526 1531 1532 1534 1536 1538 1538 1539 1541 1543 1545 1545 1545 1544 1545 1547 1548 1549 1549 1550 1552 1551 1552 1553 1554 1554 1554 1553 1552 1552 1552 1553 1553 1553 1553
1525 1513 1508 1506 1506 1509 1513 1514 1519 1521 1522 1524 1525 1526 1528 1529 1532 1535 1536 1537 1538 1539 1540 1543 1543 1544 1545 1545 1545 1546 1548 1549 1550 1550 1550 1551 1553 1553 1553 1553 1553 1552 1551 1552 1552 1553 1554 1552 1553
1520 1508 1510 1511 1511 1508 1512 1513 1518 1520 1521 1523 1525 1527 1528 1529 1533 1535 1536 1538 1538 1540 1542 1543 1543 1544 1544 1545 1545 1547 1549 1550 1551 1551 1551 1552 1552 1553 1553 1552 1552 1552 1553 1553 1553 1553 1553 1554 1553
1518 1510 1514 1513 1513 1512 1512 1515 1517 1516 1517 1518 1521 1525 1527 1529 1533 1535 1537 1538 1539 1541 1542 1542 1542 1544 1545 1546 1547 1548 1549 1551 1551 1551 1552 1552 1553 1553 1554 1553 1553 1553 1553 1554 1554 1554 1554 1553 1552
1518 1516 1515 1514 1515 1514 1512 1514 1517 1516 1515 1519 1521 1524 1527 1530 1533 1535 1537 1539 1540 1541 1542 1542 1543 1543 1544 1545 1547 1547 1549 1549 1551 1551 1551 1552 1553 1553 1554 1555 1554 1554 1555 1554 1554 1554 1552 1551 1550
1516 1516 1517 1516 1516 1515 1515 1515 1516 1516 1518 1520 1521 1523 1526 1530 1533 1535 1537 1539 1541 1541 1542 1543 1543 1542 1543 1545 1545 1546 1547 1548 1548 1549 1550 1551 1552 1553 1554 1555 1556 1556 1556 1555 1554 1553 1551 1550 1549
1518 1518 1517 1517 1515 1515 1514 1514 1519 1515 1516 1519 1521 1523 1525 1529 1532 1535 1537 1538 1540 1541 1542 1543 1543 1543 1544 1545 1545 1545 1546 1545 1547 1549 1549 1550 1551 1552 1554 1554 1555 1555 1554 1553 1552 1551 1549 1548 1547
1519 1517 1515 1514 1515 1515 1516 1515 1515 1514 1516 1517 1519 1521 1524 1528 1531 1534 1536 1537 1539 1541 1544 1543 1543 1544 1544 1544 1545 1545 1545 1545 1547 1547 1548 1548 1549 1550 1551 1552 1552 1551 1550 1549 1549 1548 1547 1546 1544
1517 1516 1514 1508 1511 1515 1519 1514 1508 1511 1514 1515 1517 1520 1523 1526 1530 1533 1535 1537 1538 1540 1542 1542 1543 1545 1546 1545 1544 1544 1544 1545 1546 1547 1547 1547 1548 1549 1550 1550 1549 1548 1547 1547 1547 1545 1544 1541 1539
1512 1515 1510 1507 1510 1512 1514 1511 1511 1514 1514 1514 1517 1520 1523 1526 1529 1532 1534 1536 1536 1537 1539 1542 1544 1547 1549 1548 1546 1543 1543 1544 1544 1545 1546 1546 1546 1547 1547 1547 1547 1545 1545 1544 1542 1540 1539 1536 1533
1505 1507 1510 1509 1507 1509 1509 1511 1516 1515 1515 1515 1518 1520 1522 1525 1527 1531 1533 1534 1535 1534 1535 1538 1543 1546 1552 1550 1547 1546 1542 1541 1542 1543 1543 1543 1543 1543 1544 1545 1542 1541 1540 1538 1536 1533 1531 1529 1527
1506 1508 1509 1506 1506 1507 1509 1517 1520 1520 1519 1520 1523 1524 1525 1526 1528 1529 1530 1531 1531 1531 1533 1534 1537 1538 1547 1552 1549 1548 1544 1541 1542 1542 1542 1542 1541 1542 1541 1541 1539 1536 1533 1530 1527 1526 1525 1524 1522
1508 1510 1507 1503 1506 1505 1511 1519 1522 1524 1526 1527 1526 1526 1527 1527 1528 1529 1528 1528 1529 1531 1532 1533 1539 1540 1542 1552 1549 1545 1544 1540 1542 1542 1542 1540 1539 1538 1536 1534 1533 1530 1528 1527 1524 1522 1520 1519 1518
1506 1505 1502 1503 1505 1504 1509 1517 1518 1525 1527 1528 1527 1527 1527 1527 1529 1530 1529 1529 1530 1531 1531 1534 1537 1539 1542 1543 1548 1542 1543 1540 1541 1541 1540 1537 1536 1534 1530 1528 1527 1525 1524 1524 1521 1519 1516 1514 1512
1497 1497 1499 1500 1504 1500 1505 1511 1515 1518 1525 1529 1531 1532 1532 1532 1532 1532 1532 1532 1533 1534 1534 1535 1537 1538 1539 1541 1543 1541 1541 1539 1539 1540 1538 1536 1533 1530 1527 1524 1522 1520 1519 1518 1516 1514 1511 1509 1505
1494 1496 1497 1498 1501 1502 1502 1508 1507 1514 1521 1531 1536 1537 1536 1535 1535 1535 1536 1536 1537 1537 1537 1537 1537 1537 1538 1539 1539 1537 1536 1537 1539 1538 1537 1535 1531 1528 1525 1522 1519 1517 1515 1513 1509 1505 1503 1501 1498
1498 1499 1500 1499 1500 1512 1500 1505 1506 1507 1523 1531 1537 1540 1540 1540 1540 1540 1540 1541 1541 1541 1540 1539 1537 1537 1538 1537 1535 1535 1535 1536 1536 1534 1532 1529 1526 1523 1521 1517 1513 1510 1507 1504 1500 1495 1492 1489 1487
1498 1502 1509 1513 1510 1508 1499 1505 1513 1524 1528 1530 1536 1540 1542 1543 1543 1544 1544 1544 1543 1543 1542 1541 1540 1539 1538 1537 1535 1534 1535 1534 1533 1530 1527 1523 1520 1517 1514 1510 1505 1502 1498 1494 1489 1485 1481 1479 1477
1495 1496 1505 1511 1511 1499 1506 1505 1515 1528 1533 1536 1539 1542 1544 1545 1546 1546 1546 1546 1546 1544 1543 1542 1540 1539 1537 1536 1535 1533 1532 1531 1529 1525 1521 1517 1513 1509 1505 1501 1497 1494 1490 1486 1482 1478 1475 1472 1469
1495 1490 1489 1494 1499 1508 1497 1508 1522 1528 1532 1535 1539 1542 1544 1546 1547 1548 1548 1548 1547 1546 1544 1543 1542 1540 1538 1536 1534 1532 1529 1527 1523 1519 1514 1511 1507 1503 1499 1494 1490 1486 1482 1479 1474 1470 1466 1464 1461
1491 1486 1503 1502 1510 1511 1499 1498 1494 1519 1526 1533 1537 1540 1544 1547 1548 1549 1549 1549 1548 1547 1546 1543 1542 1541 1538 1535 1532 1529 1525 1522 1517 1513 1509 1505 1500 1497 1492 1488 1483 1479 1475 1471 1468 1464 1460 1457 1454
1488 1490 1489 1488 1486 1498 1506 1498 1506 1505 1519 1528 1535 1540 1543 1545 1548 1549 1550 1549 1549 1548 1547 1545 1543 1540 1537 1534 1529 1525 1521 1517 1513 1509 1505 1500 1496 1492 1488 1483 1479 1474 1469 1465 1462 1459 1456 1453 1449
1483 1481 1484 1496 1495 1494 1500 1508 1517 1513 1522 1530 1537 1541 1543 1545 1547 1549 1549 1549 1548 1548 1547 1544 1541 1538 1534 1530 1526 1522 1517 1512 1508 1504 1499 1495 1492 1488 1484 1480 1476 1471 1467 1462 1458 1455 1452 1449 1444